Location: Archemont
(49.1579°N, 1.7598°E)
Time: 11:44:44
(UTC+00:00)

Vanguard 1 Rocket - Pass Details

Date: 28 April 2024
Orbit: 650 x 4220 km, 34.3° (Epoch: 25 May)

Event Time Altitude Azimuth Distance (km) Brightness Sun altitude
Rises 21:25:16 0° 247° (WSW) 3,497 10.6 -18.7°
Reaches altitude 10° 21:29:58 10° 212° (SSW) 3,079 9.9 -19.2°
Maximum altitude 21:31:55 11° 196° (SSW) 3,235 9.9 -19.3°
Enters shadow 21:32:19 11° 193° (SSW) 3,290 9.9 -19.4°
